This demonstration page uses our WeatherBlox Daily Observations layout. Learn more.

Left ArrowRight Arrow

Hourly Observations for November 12, 2015

Temp ( °F °C ) Dew Point ( °F °C ) Humidity (%) Winds ( mph kmh ) Pressure ( in mb ) Visibility ( mi km ) Precip ( " mm )
12:53 am 00:53 Clear 30 -1.1 24 -4.4 79 79 SW 18 30 30.11 1020 10 16 N/A
1:53 am 01:53 Clear 30 -1.1 23 -5 75 75 SW 17 28 30.13 1020 10 16 N/A
2:53 am 02:53 Clear 29 -1.7 22 -5.6 75 75 SW 15 24 30.14 1021 10 16 N/A
3:53 am 03:53 Partly Cloudy 29 -1.7 22 -5.6 75 75 SW 12 19 30.16 1021 10 16 N/A
4:53 am 04:53 Clear 27 -2.8 20 -6.7 75 75 SW 13 20 30.19 1022 10 16 N/A
5:53 am 05:53 Clear 25 -3.9 20 -6.7 81 81 SW 14 22 30.21 1023 10 16 N/A
6:53 am 06:53 Clear 25 -3.9 19 -7.2 78 78 SW 14 22 30.23 1024 10 16 N/A
7:53 am 07:53 Sunny 26 -3.3 19 -7.2 75 75 SW 13 20 30.25 1025 10 16 N/A
8:53 am 08:53 Sunny 29 -1.7 21 -6.1 72 72 SW 13 20 30.26 1025 10 16 N/A
9:53 am 09:53 Sunny 34 1.1 21 -6.1 59 59 SW 14 22 30.25 1024 10 16 N/A
10:53 am 10:53 Sunny 37 2.8 21 -6.1 52 52 SW 13 20 30.25 1024 10 16 N/A
11:53 am 11:53 Sunny 40 4.4 22 -5.6 49 49 SW 13 20 30.21 1023 10 16 N/A
12:53 pm 12:53 Sunny 42 5.6 22 -5.6 45 45 WSW 17 28 30.18 1022 10 16 N/A
1:53 pm 13:53 Sunny 43 6.1 19 -7.2 38 38 W 20 31 30.15 1021 10 16 N/A
2:53 pm 14:53 Sunny 43 6.1 16 -8.9 34 34 WSW 18 30 30.13 1020 10 16 N/A
3:53 pm 15:53 Sunny 40 4.4 17 -8.3 40 40 W 12 19 30.10 1019 10 16 N/A
4:53 pm 16:53 Clear 32 undefined 18 -7.8 56 56 SW 8 13 30.11 1020 10 16 N/A
5:53 pm 17:53 Clear 33 0.6 20 -6.7 58 58 SW 14 22 30.07 1018 10 16 N/A
6:53 pm 18:53 Clear 35 1.7 21 -6.1 57 57 SW 15 24 30.04 1017 10 16 N/A
7:53 pm 19:53 Clear 35 1.7 20 -6.7 54 54 SW 16 26 30.00 1016 10 16 N/A
8:53 pm 20:53 Clear 38 3.3 20 -6.7 48 48 SW 22 35 29.96 1015 10 16 N/A
9:53 pm 21:53 Clear 37 2.8 21 -6.1 52 52 SW 21 33 29.93 1014 10 16 N/A
10:53 pm 22:53 Mostly Clear 38 3.3 21 -6.1 51 51 SW 18 30 29.91 1013 10 16 N/A
11:53 pm 23:53 Mostly Cloudy 40 4.4 22 -5.6 49 49 SW 23 37 29.87 1011 10 16 N/A

Powered by AerisWeather